Location: Rounton
(54.4000°N, 1.3500°W)
Time: 18:39:48
(UTC+00:00)

Transit 2A Rocket - All Passes

Search period start: 30 November 2021 00:00
Search period end: 10 December 2021 00:00
Orbit: 584 x 918 km, 66.7° (Epoch: 30 November)

Date Brightness Start Highest point End Pass type
(mag) Time Alt. Az. Time Alt. Az. Time Alt. Az.
30 Nov - 07:34:04 10° SSE 07:38:00 19° ESE 07:42:04 10° ENE daylight
30 Nov - 09:13:57 10° SSW 09:19:42 76° SE 09:25:51 10° NE daylight
30 Nov - 10:57:20 10° W 11:02:54 40° NNW 11:08:41 10° NE daylight
30 Nov - 12:42:04 10° WNW 12:47:06 26° N 12:52:12 10° NE daylight
30 Nov - 14:26:00 10° NW 14:31:28 32° NNE 14:36:53 10° E daylight
30 Nov - 16:08:55 10° NW 16:15:06 72° NE 16:21:03 10° SE daylight
30 Nov - 17:52:02 10° NW 17:57:24 33° WSW 18:02:33 10° S visible
01 Dec - 06:53:39 10° ESE 06:55:49 12° E 06:58:00 10° ENE visible
01 Dec - 08:31:32 10° SSW 08:37:07 53° ESE 08:43:03 10° NE daylight
01 Dec - 10:14:12 10° WSW 10:19:56 50° NW 10:25:56 10° NE daylight
01 Dec - 11:58:47 10° WNW 12:03:55 28° NNW 12:09:08 10° NE daylight
01 Dec - 13:43:06 10° NW 13:48:21 28° NNE 13:53:34 10° ENE daylight
01 Dec - 15:26:12 10° NW 15:32:16 55° NE 15:38:07 10° ESE daylight
01 Dec - 17:09:06 10° NW 17:14:57 48° WSW 17:20:32 10° SSE visible
01 Dec - 18:55:01 10° W 18:56:09 11° W 18:57:18 10° WSW visible
02 Dec - 07:49:26 10° S 07:54:39 37° ESE 08:00:09 10° NE daylight
02 Dec - 09:31:13 10° SW 09:37:03 66° NW 09:43:12 10° NE daylight
02 Dec - 11:15:29 10° W 11:20:47 31° NNW 11:26:11 10° NE daylight
02 Dec - 13:00:04 10° NW 13:05:10 26° N 13:10:16 10° ENE daylight
02 Dec - 14:43:27 10° NW 14:49:19 43° NNE 14:55:01 10° ESE daylight
02 Dec - 16:26:17 10° NW 16:32:24 69° SW 16:38:13 10° SSE visible
02 Dec - 18:10:17 10° WNW 18:14:01 17° WSW 18:17:38 10° SW visible
03 Dec - 07:07:42 10° SSE 07:12:17 25° ESE 07:17:04 10° ENE visible
03 Dec - 08:48:25 10° SW 08:54:17 88° NW 09:00:28 10° NE daylight
03 Dec - 10:32:13 10° W 10:37:41 36° NNW 10:43:19 10° NE daylight
03 Dec - 12:16:57 10° NW 12:21:59 26° N 12:27:03 10° NE daylight
03 Dec - 14:00:40 10° NW 14:06:18 35° NNE 14:11:48 10° E daylight
03 Dec - 15:43:31 10° NW 15:49:43 87° NE 15:55:38 10° SE daylight
03 Dec - 17:26:52 10° WNW 17:31:45 26° WSW 17:36:26 10° SSW visible
04 Dec - 06:26:32 10° SE 06:30:02 17° ESE 06:33:37 10° ENE visible
04 Dec - 08:05:51 10° SSW 08:11:36 67° SE 08:17:42 10° NE daylight
04 Dec - 09:49:00 10° WSW 09:54:40 43° NNW 10:00:32 10° NE daylight
04 Dec - 11:33:43 10° WNW 11:38:47 27° N 11:43:55 10° NE daylight
04 Dec - 13:17:48 10° NW 13:23:12 31° NNE 13:28:30 10° E daylight
04 Dec - 15:00:48 10° NW 15:06:56 65° NE 15:12:50 10° SE daylight
04 Dec - 16:43:49 10° NW 16:49:23 38° WSW 16:54:40 10° S visible
05 Dec - 05:47:28 10° ESE 05:47:53 10° E 05:48:19 10° E visible
05 Dec - 07:23:33 10° S 07:29:03 47° ESE 07:34:52 10° NE visible
05 Dec - 09:05:54 10° WSW 09:11:43 55° NW 09:17:47 10° NE daylight
05 Dec - 10:50:25 10° WNW 10:55:38 29° NNW 11:00:54 10° NE daylight
05 Dec - 12:34:51 10° NW 12:40:03 28° N 12:45:13 10° ENE daylight
05 Dec - 14:18:04 10° NW 14:24:03 50° NE 14:29:50 10° ESE daylight
05 Dec - 16:00:56 10° NW 16:06:54 54° WSW 16:12:32 10° SSE daylight
05 Dec - 17:45:47 10° WNW 17:48:14 13° W 17:50:37 10° SW visible
06 Dec - 06:41:34 10° S 06:46:37 32° ESE 06:51:55 10° NE visible
06 Dec - 08:22:59 10° SW 08:28:53 73° NW 08:35:04 10° NE daylight
06 Dec - 10:07:07 10° W 10:12:29 32° NNW 10:17:59 10° NE daylight
06 Dec - 11:51:47 10° NW 11:56:52 26° N 12:01:56 10° ENE daylight
06 Dec - 13:35:18 10° NW 13:41:05 40° NNE 13:46:41 10° E daylight
06 Dec - 15:18:08 10° NW 15:24:17 77° SW 15:30:07 10° SSE daylight
06 Dec - 17:01:51 10° WNW 17:06:03 20° WSW 17:10:05 10° SSW visible
07 Dec - 06:00:00 10° SSE 06:04:17 22° ESE 06:08:45 10° ENE visible
07 Dec - 07:40:17 10° SW 07:46:09 83° SE 07:52:19 10° NE daylight
07 Dec - 09:23:51 10° W 09:29:25 38° NNW 09:35:09 10° NE daylight
07 Dec - 11:08:37 10° WNW 11:13:40 26° N 11:18:44 10° NE daylight
07 Dec - 12:52:29 10° NW 12:58:02 33° NNE 13:03:26 10° E daylight
07 Dec - 14:35:23 10° NW 14:41:34 78° NE 14:47:27 10° SE daylight
07 Dec - 16:18:36 10° NW 16:23:44 29° WSW 16:28:39 10° S visible
08 Dec - 05:19:10 10° SE 05:22:04 14° ESE 05:25:03 10° ENE visible
08 Dec - 06:57:47 10° SSW 07:03:31 59° ESE 07:09:32 10° NE visible
08 Dec - 08:40:41 10° WSW 08:46:26 47° NW 08:52:23 10° NE daylight
08 Dec - 10:25:21 10° WNW 10:30:29 27° N 10:35:39 10° NE daylight
08 Dec - 12:09:35 10° NW 12:14:55 29° NNE 12:20:09 10° ENE daylight
08 Dec - 13:52:39 10° NW 13:58:45 59° NE 14:04:34 10° ESE daylight
08 Dec - 15:35:36 10° NW 15:41:20 43° WSW 15:46:44 10° S daylight
09 Dec - 06:15:36 10° S 06:21:00 41° ESE 06:26:41 10° NE visible
09 Dec - 07:57:39 10° WSW 08:03:32 61° NW 08:09:39 10° NE daylight
09 Dec - 09:42:03 10° WNW 09:47:19 30° NNW 09:52:41 10° NE daylight
09 Dec - 11:26:36 10° NW 11:31:45 27° N 11:36:50 10° ENE daylight
09 Dec - 13:09:55 10° NW 13:15:49 46° NNE 13:21:32 10° ESE daylight
09 Dec - 14:52:45 10° NW 14:58:48 62° WSW 15:04:30 10° SSE daylight
09 Dec - 16:37:04 10° WNW 16:40:17 15° WSW 16:43:24 10° SW visible
